QPF
0.04 0.04 0.05 0.04 0.04 0.04 0.05 0.07 0.09 0.08 0.07 0.08 0.07 0.07 0.06 0.06 0.05 0.04 0.05 0.05 0.03 0.03 0.03 0.03 0.04 0.04 0.04 0.04 0.05 0.07 0.08 0.07 0.07 0.08 0.11 0.14 0.15 0.14
0.04 0.03 0.03 0.03 0.02 0.02 0.03 0.04 0.05 0.07 0.07 0.08 0.08 0.06 0.05 0.05 0.04 0.03 0.04 0.05 0.05 0.03 0.02 0.02 0.03 0.03 0.04 0.04 0.06 0.07 0.08 0.07 0.06 0.06 0.07 0.09 0.11 0.11
0.05 0.04 0.03 0.02 0.02 0.02 0.02 0.03 0.04 0.05 0.06 0.05 0.05 0.05 0.06 0.06 0.05 0.04 0.03 0.03 0.03 0.04 0.04 0.03 0.03 0.03 0.04 0.05 0.06 0.08 0.08 0.08 0.07 0.05 0.04 0.04 0.06 0.08
0.06 0.05 0.04 0.02 0.02 0.03 0.03 0.03 0.03 0.04 0.04 0.05 0.05 0.05 0.05 0.05 0.05 0.05 0.04 0.03 0.03 0.03 0.03 0.03 0.03 0.02 0.03 0.04 0.06 0.09 0.08 0.07 0.08 0.08 0.05 0.03 0.04 0.05
0.05 0.04 0.04 0.03 0.03 0.03 0.03 0.04 0.04 0.03 0.04 0.05 0.06 0.07 0.07 0.05 0.05 0.06 0.05 0.05 0.04 0.04 0.03 0.02 0.02 0.02 0.03 0.04 0.04 0.07 0.08 0.06 0.07 0.08 0.06 0.05 0.04 0.04
0.05 0.05 0.04 0.03 0.03 0.04 0.04 0.04 0.04 0.04 0.05 0.06 0.06 0.07 0.07 0.05 0.05 0.07 0.08 0.07 0.04 0.03 0.03 0.03 0.02 0.02 0.02 0.03 0.03 0.02 0.04 0.06 0.08 0.09 0.07 0.05 0.05 0.04
0.06 0.05 0.04 0.03 0.03 0.03 0.03 0.03 0.04 0.05 0.05 0.05 0.05 0.04 0.04 0.05 0.05 0.07 0.08 0.06 0.04 0.03 0.04 0.03 0.03 0.02 0.02 0.02 0.03 0.02 0.03 0.04 0.05 0.07 0.08 0.08 0.07 0.06
0.06 0.06 0.04 0.03 0.03 0.02 0.02 0.02 0.02 0.03 0.05 0.06 0.05 0.05 0.04 0.05 0.05 0.07 0.06 0.05 0.05 0.05 0.05 0.04 0.03 0.03 0.03 0.03 0.03 0.03 0.03 0.05 0.05 0.05 0.05 0.07 0.08 0.07
0.04 0.03 0.03 0.03 0.03 0.03 0.03 0.03 0.02 0.02 0.02 0.04 0.06 0.05 0.05 0.05 0.06 0.05 0.05 0.05 0.05 0.05 0.05 0.05 0.04 0.03 0.03 0.03 0.04 0.04 0.04 0.05 0.06 0.06 0.07 0.06 0.07 0.07
0.03 0.03 0.03 0.03 0.02 0.03 0.03 0.04 0.03 0.02 0.03 0.03 0.04 0.04 0.05 0.05 0.04 0.04 0.04 0.04 0.03 0.04 0.05 0.04 0.04 0.03 0.03 0.03 0.03 0.04 0.04 0.04 0.07 0.08 0.08 0.08 0.07 0.07
0.02 0.02 0.02 0.02 0.02 0.01 0.02 0.02 0.02 0.02 0.02 0.01 0.01 0.02 0.02 0.02 0.03 0.03 0.03 0.03 0.04 0.04 0.04 0.05 0.04 0.04 0.03 0.03 0.03 0.03 0.03 0.03 0.04 0.07 0.09 0.09 0.08 0.08
0.03 0.03 0.03 0.02 0.02 0.02 0.02 0.03 0.03 0.02 0.01 0.01 0.02 0.02 0.02 0.03 0.03 0.03 0.04 0.05 0.04 0.04 0.05 0.05 0.05 0.05 0.05 0.03 0.03 0.03 0.03 0.02 0.02 0.03 0.04 0.06 0.08 0.09
0.02 0.02 0.02 0.02 0.01 0.01 0.02 0.02 0.02 0.02 0.02 0.02 0.02 0.02 0.03 0.04 0.04 0.05 0.04 0.04 0.05 0.05 0.06 0.07 0.07 0.07 0.07 0.05 0.04 0.04 0.04 0.04 0.03 0.03 0.04 0.04 0.04 0.06
0.01 0.01 0.01 0.01 0.01 0.01 0.01 0.01 0.01 0.01 0.02 0.03 0.04 0.04 0.04 0.04 0.04 0.05 0.04 0.04 0.04 0.04 0.05 0.07 0.07 0.08 0.08 0.07 0.06 0.05 0.05 0.04 0.04 0.03 0.04 0.05 0.04 0.05
0.01 0.01 0.01 0.01 0.01 0.02 0.02 0.02 0.02 0.03 0.04 0.04 0.05 0.05 0.05 0.04 0.03 0.03 0.03 0.04 0.03 0.03 0.03 0.04 0.05 0.06 0.08 0.08 0.08 0.08 0.08 0.06 0.04 0.04 0.04 0.04 0.04 0.06
0.01 0.01 0.01 0.01 0.00 0.01 0.01 0.02 0.03 0.04 0.04 0.03 0.04 0.05 0.04 0.04 0.04 0.04 0.04 0.05 0.04 0.04 0.05 0.04 0.05 0.05 0.07 0.07 0.08 0.08 0.08 0.08 0.07 0.05 0.05 0.05 0.05 0.05
0.01 0.01 0.02 0.01 0.01 0.02 0.02 0.03 0.03 0.04 0.04 0.04 0.04 0.04 0.04 0.04 0.04 0.04 0.04 0.05 0.05 0.06 0.06 0.06 0.05 0.05 0.06 0.07 0.07 0.08 0.09 0.10 0.09 0.08 0.08 0.07 0.06 0.06
0.01 0.01 0.02 0.02 0.02 0.02 0.03 0.03 0.03 0.04 0.04 0.04 0.04 0.04 0.04 0.04 0.03 0.03 0.04 0.05 0.07 0.08 0.07 0.07 0.06 0.06 0.06 0.06 0.05 0.06 0.08 0.10 0.10 0.11 0.10 0.09 0.09 0.08
0.01 0.01 0.02 0.02 0.02 0.02 0.03 0.03 0.04 0.04 0.04 0.04 0.04 0.05 0.05 0.05 0.05 0.05 0.06 0.06 0.06 0.07 0.07 0.07 0.07 0.08 0.07 0.06 0.05 0.04 0.06 0.09 0.11 0.11 0.11 0.10 0.08 0.07
0.02 0.02 0.03 0.02 0.02 0.02 0.03 0.04 0.04 0.03 0.03 0.04 0.04 0.05 0.07 0.07 0.07 0.07 0.08 0.07 0.06 0.06 0.06 0.07 0.07 0.08 0.07 0.06 0.06 0.05 0.04 0.07 0.10 0.10 0.12 0.11 0.09 0.08
0.05 0.05 0.04 0.03 0.03 0.03 0.03 0.03 0.04 0.04 0.04 0.04 0.04 0.05 0.06 0.06 0.08 0.08 0.09 0.07 0.05 0.06 0.06 0.06 0.06 0.04 0.05 0.06 0.07 0.06 0.06 0.04 0.06 0.08 0.08 0.09 0.09 0.08
0.05 0.05 0.04 0.04 0.03 0.03 0.03 0.02 0.03 0.03 0.03 0.03 0.03 0.03 0.04 0.05 0.06 0.07 0.08 0.07 0.07 0.06 0.06 0.06 0.06 0.05 0.05 0.07 0.07 0.07 0.08 0.06 0.03 0.03 0.03 0.05 0.06 0.07
0.04 0.04 0.04 0.04 0.03 0.02 0.02 0.02 0.02 0.03 0.02 0.02 0.03 0.03 0.04 0.04 0.04 0.05 0.06 0.05 0.05 0.05 0.05 0.05 0.06 0.06 0.06 0.07 0.07 0.06 0.06 0.06 0.04 0.03 0.03 0.03 0.03 0.03
MSLP
1007.82 1007.58 1007.40 1007.28 1007.18 1007.10 1007.02 1006.91 1006.77 1006.60 1006.41 1006.20 1006.01 1005.87 1005.80 1005.84 1006.01 1006.31 1006.74 1007.28 1007.89 1008.55 1009.23 1009.88 1010.48 1011.01 1011.46 1011.82 1012.09 1012.26 1012.34 1012.32 1012.18 1011.95 1011.62 1011.20 1010.74 1010.24
1008.01 1007.72 1007.50 1007.32 1007.19 1007.08 1006.97 1006.84 1006.69 1006.50 1006.28 1006.05 1005.83 1005.66 1005.57 1005.59 1005.74 1006.02 1006.44 1006.96 1007.58 1008.24 1008.90 1009.54 1010.13 1010.66 1011.10 1011.47 1011.75 1011.94 1012.05 1012.06 1011.97 1011.78 1011.48 1011.10 1010.64 1010.14
1008.26 1007.94 1007.68 1007.48 1007.32 1007.18 1007.06 1006.91 1006.74 1006.53 1006.29 1006.04 1005.79 1005.59 1005.47 1005.46 1005.58 1005.84 1006.22 1006.73 1007.31 1007.94 1008.56 1009.17 1009.73 1010.23 1010.66 1011.02 1011.31 1011.53 1011.68 1011.76 1011.73 1011.61 1011.39 1011.07 1010.66 1010.20
1008.53 1008.20 1007.92 1007.70 1007.53 1007.38 1007.24 1007.09 1006.90 1006.68 1006.42 1006.14 1005.88 1005.65 1005.50 1005.46 1005.54 1005.76 1006.11 1006.57 1007.10 1007.66 1008.24 1008.78 1009.29 1009.74 1010.13 1010.48 1010.77 1011.02 1011.22 1011.36 1011.42 1011.40 1011.28 1011.05 1010.74 1010.35
1008.79 1008.46 1008.18 1007.96 1007.79 1007.64 1007.50 1007.34 1007.15 1006.92 1006.64 1006.35 1006.06 1005.82 1005.65 1005.58 1005.63 1005.80 1006.10 1006.49 1006.94 1007.43 1007.92 1008.38 1008.81 1009.19 1009.53 1009.84 1010.13 1010.40 1010.64 1010.85 1011.01 1011.10 1011.10 1010.99 1010.80 1010.52
1009.01 1008.69 1008.42 1008.21 1008.04 1007.90 1007.76 1007.61 1007.42 1007.18 1006.91 1006.62 1006.32 1006.06 1005.87 1005.78 1005.79 1005.92 1006.15 1006.46 1006.83 1007.22 1007.61 1007.97 1008.30 1008.59 1008.86 1009.13 1009.39 1009.67 1009.95 1010.22 1010.47 1010.67 1010.80 1010.84 1010.78 1010.65
1009.17 1008.86 1008.61 1008.41 1008.25 1008.12 1007.99 1007.84 1007.66 1007.44 1007.17 1006.88 1006.58 1006.32 1006.12 1006.00 1005.97 1006.05 1006.22 1006.45 1006.72 1007.01 1007.28 1007.53 1007.75 1007.95 1008.15 1008.35 1008.58 1008.85 1009.15 1009.48 1009.80 1010.11 1010.36 1010.54 1010.64 1010.66
1009.27 1008.98 1008.74 1008.54 1008.39 1008.26 1008.14 1008.00 1007.83 1007.61 1007.36 1007.08 1006.79 1006.53 1006.32 1006.18 1006.12 1006.14 1006.23 1006.38 1006.56 1006.74 1006.90 1007.04 1007.16 1007.27 1007.39 1007.53 1007.73 1007.98 1008.29 1008.65 1009.04 1009.42 1009.78 1010.09 1010.33 1010.50
1009.33 1009.04 1008.80 1008.61 1008.46 1008.33 1008.20 1008.06 1007.89 1007.68 1007.44 1007.17 1006.89 1006.63 1006.41 1006.25 1006.15 1006.12 1006.15 1006.22 1006.30 1006.38 1006.45 1006.50 1006.53 1006.55 1006.60 1006.70 1006.85 1007.09 1007.40 1007.78 1008.20 1008.65 1009.09 1009.50 1009.86 1010.15
1009.36 1009.08 1008.83 1008.62 1008.45 1008.30 1008.16 1008.01 1007.83 1007.62 1007.38 1007.11 1006.84 1006.58 1006.35 1006.16 1006.03 1005.96 1005.92 1005.92 1005.92 1005.92 1005.91 1005.88 1005.85 1005.82 1005.82 1005.88 1006.00 1006.22 1006.52 1006.90 1007.34 1007.82 1008.31 1008.78 1009.22 1009.60
1009.39 1009.10 1008.83 1008.60 1008.39 1008.21 1008.04 1007.85 1007.65 1007.43 1007.18 1006.91 1006.64 1006.37 1006.13 1005.92 1005.76 1005.64 1005.55 1005.48 1005.43 1005.38 1005.31 1005.24 1005.16 1005.10 1005.08 1005.11 1005.22 1005.41 1005.70 1006.06 1006.50 1006.98 1007.48 1007.97 1008.44 1008.86
1009.44 1009.12 1008.82 1008.54 1008.30 1008.06 1007.84 1007.62 1007.38 1007.13 1006.86 1006.58 1006.30 1006.02 1005.77 1005.54 1005.34 1005.19 1005.06 1004.95 1004.86 1004.77 1004.68 1004.59 1004.50 1004.43 1004.40 1004.42 1004.52 1004.70 1004.96 1005.30 1005.70 1006.16 1006.63 1007.10 1007.56 1007.99
1009.48 1009.14 1008.80 1008.47 1008.16 1007.87 1007.60 1007.32 1007.04 1006.76 1006.47 1006.17 1005.87 1005.58 1005.31 1005.06 1004.85 1004.66 1004.51 1004.38 1004.27 1004.17 1004.07 1003.98 1003.90 1003.84 1003.81 1003.84 1003.92 1004.08 1004.30 1004.60 1004.96 1005.36 1005.78 1006.21 1006.62 1007.02
1009.49 1009.11 1008.73 1008.35 1007.99 1007.64 1007.31 1006.99 1006.67 1006.36 1006.04 1005.72 1005.40 1005.10 1004.82 1004.56 1004.33 1004.13 1003.97 1003.83 1003.72 1003.62 1003.53 1003.45 1003.39 1003.34 1003.32 1003.34 1003.41 1003.54 1003.72 1003.96 1004.26 1004.59 1004.94 1005.30 1005.66 1006.00
1009.42 1009.01 1008.59 1008.17 1007.76 1007.37 1007.00 1006.64 1006.29 1005.94 1005.61 1005.28 1004.95 1004.64 1004.35 1004.08 1003.84 1003.64 1003.48 1003.34 1003.23 1003.15 1003.07 1003.01 1002.96 1002.92 1002.89 1002.90 1002.94 1003.03 1003.17 1003.35 1003.57 1003.83 1004.11 1004.40 1004.70 1004.98
1009.24 1008.81 1008.36 1007.91 1007.48 1007.06 1006.66 1006.29 1005.92 1005.57 1005.23 1004.89 1004.56 1004.24 1003.95 1003.68 1003.44 1003.23 1003.06 1002.93 1002.83 1002.75 1002.68 1002.62 1002.57 1002.53 1002.49 1002.47 1002.48 1002.52 1002.59 1002.71 1002.86 1003.05 1003.27 1003.51 1003.75 1003.99
1008.92 1008.48 1008.02 1007.57 1007.14 1006.72 1006.34 1005.96 1005.61 1005.27 1004.93 1004.60 1004.27 1003.94 1003.64 1003.36 1003.12 1002.90 1002.72 1002.59 1002.48 1002.39 1002.32 1002.25 1002.18 1002.12 1002.05 1001.99 1001.95 1001.94 1001.95 1002.01 1002.11 1002.24 1002.42 1002.61 1002.82 1003.04
1008.48 1008.04 1007.60 1007.18 1006.77 1006.40 1006.04 1005.71 1005.39 1005.06 1004.74 1004.42 1004.08 1003.76 1003.44 1003.14 1002.87 1002.63 1002.43 1002.27 1002.13 1002.02 1001.92 1001.82 1001.71 1001.61 1001.50 1001.39 1001.30 1001.23 1001.20 1001.21 1001.27 1001.38 1001.52 1001.71 1001.92 1002.14
1007.98 1007.56 1007.16 1006.78 1006.44 1006.12 1005.83 1005.55 1005.27 1004.98 1004.68 1004.36 1004.02 1003.68 1003.33 1002.99 1002.68 1002.39 1002.14 1001.92 1001.74 1001.57 1001.42 1001.27 1001.12 1000.96 1000.80 1000.64 1000.50 1000.39 1000.33 1000.31 1000.35 1000.45 1000.60 1000.80 1001.02 1001.28
1007.48 1007.11 1006.76 1006.46 1006.19 1005.95 1005.73 1005.51 1005.28 1005.03 1004.74 1004.42 1004.07 1003.68 1003.28 1002.89 1002.50 1002.14 1001.82 1001.52 1001.26 1001.02 1000.80 1000.59 1000.38 1000.16 999.95 999.75 999.58 999.44 999.35 999.32 999.37 999.47 999.64 999.86 1000.12 1000.41
1007.07 1006.76 1006.48 1006.26 1006.07 1005.91 1005.76 1005.61 1005.42 1005.20 1004.92 1004.59 1004.20 1003.76 1003.30 1002.82 1002.34 1001.89 1001.47 1001.08 1000.72 1000.40 1000.09 999.80 999.52 999.26 999.00 998.77 998.57 998.42 998.32 998.30 998.36 998.48 998.68 998.93 999.22 999.52
1006.81 1006.56 1006.36 1006.21 1006.10 1006.02 1005.94 1005.83 1005.68 1005.48 1005.20 1004.83 1004.39 1003.90 1003.35 1002.78 1002.20 1001.65 1001.11 1000.62 1000.16 999.74 999.36 999.00 998.66 998.34 998.05 997.78 997.57 997.42 997.33 997.32 997.38 997.53 997.74 998.00 998.30 998.61
1006.73 1006.54 1006.40 1006.32 1006.28 1006.25 1006.22 1006.15 1006.02 1005.82 1005.52 1005.13 1004.64 1004.07 1003.44 1002.79 1002.12 1001.45 1000.82 1000.22 999.67 999.17 998.70 998.28 997.88 997.52 997.20 996.92 996.70 996.54 996.44 996.43 996.50 996.64 996.85 997.10 997.38 997.67
Thickness
5616 5615 5614 5615 5614 5614 5613 5612 5610 5611 5615 5617 5617 5618 5617 5617 5617 5618 5620 5622 5624 5626 5628 5629 5632 5634 5636 5639 5642 5644 5646 5647 5649 5651 5653 5655 5656 5657
5609 5608 5607 5608 5607 5607 5607 5607 5606 5605 5606 5609 5610 5611 5610 5610 5610 5611 5614 5615 5617 5619 5620 5623 5624 5626 5629 5632 5634 5637 5639 5641 5643 5645 5646 5648 5649 5650
5604 5603 5602 5601 5601 5602 5602 5601 5601 5600 5599 5601 5603 5604 5602 5602 5604 5605 5607 5609 5612 5613 5614 5616 5617 5619 5622 5625 5627 5630 5632 5634 5636 5638 5640 5641 5642 5644
5599 5598 5597 5597 5595 5595 5595 5594 5594 5594 5593 5593 5595 5597 5597 5597 5598 5598 5601 5604 5606 5607 5608 5609 5611 5613 5616 5618 5620 5623 5625 5627 5628 5630 5633 5635 5636 5636
5594 5593 5592 5591 5590 5590 5588 5589 5589 5590 5589 5588 5590 5591 5592 5592 5592 5593 5596 5597 5600 5602 5603 5604 5605 5607 5609 5612 5614 5616 5618 5620 5622 5623 5625 5626 5628 5628
5590 5589 5588 5586 5585 5585 5584 5583 5584 5584 5584 5584 5585 5586 5587 5587 5586 5588 5590 5592 5595 5598 5599 5599 5600 5601 5604 5606 5608 5610 5611 5613 5614 5616 5617 5618 5620 5621
5586 5585 5583 5581 5579 5578 5579 5579 5579 5579 5580 5580 5580 5581 5582 5581 5581 5583 5585 5587 5590 5592 5593 5595 5597 5599 5601 5601 5602 5604 5605 5607 5608 5609 5610 5611 5613 5614
5581 5580 5579 5577 5575 5572 5571 5570 5570 5572 5574 5574 5575 5575 5576 5577 5578 5579 5580 5581 5583 5587 5587 5590 5593 5595 5598 5600 5600 5599 5599 5600 5601 5602 5603 5604 5606 5607
5576 5575 5576 5575 5572 5572 5569 5566 5566 5564 5563 5566 5569 5570 5571 5572 5572 5573 5574 5575 5577 5581 5581 5585 5588 5590 5593 5596 5594 5593 5593 5594 5595 5596 5597 5598 5599 5601
5572 5571 5570 5569 5568 5565 5566 5567 5566 5565 5563 5562 5563 5564 5566 5566 5566 5566 5567 5569 5572 5575 5576 5578 5583 5586 5589 5590 5588 5588 5588 5588 5588 5589 5590 5591 5593 5594
5570 5569 5567 5565 5560 5558 5560 5562 5562 5562 5561 5559 5558 5559 5558 5558 5558 5561 5563 5565 5569 5573 5574 5575 5579 5580 5582 5585 5585 5583 5583 5582 5583 5584 5584 5586 5587 5587
5569 5567 5563 5560 5556 5554 5556 5557 5558 5559 5559 5560 5558 5557 5557 5558 5556 5556 5560 5562 5565 5568 5571 5571 5573 5574 5576 5580 5581 5580 5578 5578 5578 5579 5580 5581 5581 5581
5568 5567 5564 5557 5553 5551 5550 5552 5553 5552 5554 5555 5557 5558 5559 5559 5559 5558 5557 5558 5561 5564 5567 5566 5567 5569 5570 5573 5576 5578 5578 5578 5576 5576 5576 5576 5576 5577
5564 5564 5561 5554 5551 5549 5550 5550 5548 5547 5552 5554 5555 5556 5557 5558 5558 5557 5556 5556 5556 5558 5560 5560 5561 5562 5564 5566 5569 5573 5575 5575 5576 5577 5577 5574 5572 5573
5561 5558 5555 5552 5550 5552 5551 5549 5547 5550 5552 5553 5553 5553 5554 5555 5555 5555 5555 5554 5553 5555 5557 5556 5556 5557 5558 5560 5564 5567 5569 5571 5573 5574 5575 5575 5574 5573
5560 5558 5555 5554 5552 5552 5553 5553 5552 5551 5550 5550 5551 5552 5552 5552 5554 5554 5554 5553 5553 5555 5555 5555 5554 5554 5554 5556 5559 5562 5565 5567 5569 5570 5571 5572 5572 5573
5554 5557 5560 5560 5559 5558 5557 5554 5552 5551 5549 5548 5548 5549 5550 5551 5552 5552 5551 5552 5552 5553 5554 5553 5552 5551 5551 5552 5554 5558 5560 5563 5564 5565 5565 5567 5570 5571
5551 5558 5559 5558 5557 5556 5553 5552 5550 5548 5547 5546 5546 5546 5547 5547 5549 5549 5549 5549 5548 5549 5550 5550 5549 5548 5547 5551 5551 5554 5557 5558 5560 5560 5560 5562 5565 5567
5554 5558 5557 5555 5553 5552 5550 5548 5547 5546 5544 5543 5543 5542 5542 5543 5542 5543 5544 5545 5545 5546 5547 5547 5546 5545 5544 5547 5552 5550 5552 5554 5554 5555 5557 5558 5560 5563
5558 5556 5554 5552 5550 5547 5545 5544 5543 5542 5541 5540 5539 5537 5537 5536 5537 5537 5538 5538 5539 5540 5542 5543 5542 5542 5541 5543 5547 5550 5547 5550 5550 5551 5554 5555 5556 5557
5556 5553 5550 5547 5545 5543 5541 5540 5539 5538 5536 5535 5534 5533 5532 5531 5531 5532 5533 5532 5532 5535 5536 5538 5538 5536 5538 5539 5541 5546 5548 5545 5547 5546 5548 5550 5551 5552
5552 5548 5545 5542 5540 5539 5537 5535 5534 5532 5530 5529 5528 5527 5526 5526 5525 5526 5526 5527 5529 5530 5531 5533 5534 5534 5534 5535 5537 5541 5542 5543 5542 5541 5541 5544 5547 5548
5548 5544 5542 5539 5536 5533 5532 5530 5527 5526 5523 5520 5519 5519 5519 5520 5520 5520 5521 5521 5523 5525 5527 5528 5529 5529 5530 5531 5533 5536 5537 5538 5540 5540 5539 5539 5538 5539